Time,TemperatureF,DewpointF,PressureIn,WindDirection,WindDirectionDegrees,WindSpeedMPH,WindSpeedGustMPH,Humidity,HourlyPrecipIn,Conditions,Clouds,dailyrainin,SoftwareType,DateUTC
2013-02-19 00:02:00,44.0,41.0,29.53,SSW,202,32.0,44.0,88,0.01,,,0.10,,2013-02-19 05:02:00,
2013-02-19 00:13:00,44.0,41.0,29.53,SSW,202,32.0,44.0,88,0.01,,,0.10,,2013-02-19 05:13:00,
2013-02-19 00:22:00,44.0,41.0,29.53,SSW,192,31.0,40.0,89,0.01,,,0.10,,2013-02-19 05:22:00,
2013-02-19 00:32:00,44.0,41.0,29.52,South,189,29.0,46.0,88,0.01,,,0.10,,2013-02-19 05:32:00,
2013-02-19 00:43:00,44.0,41.0,29.52,South,189,29.0,46.0,88,0.01,,,0.10,,2013-02-19 05:43:00,
2013-02-19 00:52:00,44.0,41.0,29.51,SSW,198,31.0,40.0,88,0.02,,,0.11,,2013-02-19 05:52:00,
2013-02-19 01:02:00,44.0,41.0,29.50,SSW,203,32.0,42.0,89,0.03,,,0.12,,2013-02-19 06:02:00,
2013-02-19 01:12:00,44.0,41.0,29.50,SSW,203,32.0,42.0,89,0.03,,,0.12,,2013-02-19 06:12:00,
2013-02-19 01:22:00,43.0,40.0,29.51,SSW,207,26.0,37.0,90,0.03,,,0.13,,2013-02-19 06:22:00,
2013-02-19 01:32:00,43.0,41.0,29.50,South,191,26.0,36.0,91,0.04,,,0.14,,2013-02-19 06:32:00,
2013-02-19 01:42:00,43.0,41.0,29.50,South,191,26.0,36.0,91,0.04,,,0.14,,2013-02-19 06:42:00,
2013-02-19 01:53:00,44.0,42.0,29.48,SSW,194,27.0,37.0,91,0.04,,,0.15,,2013-02-19 06:53:00,
2013-02-19 02:01:00,44.0,42.0,29.48,SSW,207,31.0,40.0,91,0.03,,,0.15,,2013-02-19 07:01:00,
2013-02-19 02:11:00,44.0,42.0,29.48,SSW,207,31.0,40.0,91,0.03,,,0.15,,2013-02-19 07:11:00,
2013-02-19 02:22:00,43.0,40.0,29.52,WSW,250,22.0,55.0,89,0.03,,,0.16,,2013-02-19 07:22:00,
2013-02-19 02:32:00,37.0,34.0,29.54,WNW,284,28.0,36.0,87,0.02,,,0.16,,2013-02-19 07:32:00,
2013-02-19 02:42:00,37.0,34.0,29.54,WNW,284,28.0,36.0,87,0.02,,,0.16,,2013-02-19 07:42:00,
2013-02-19 02:52:00,34.0,31.0,29.56,West,263,23.0,33.0,90,0.01,,,0.16,,2013-02-19 07:52:00,
2013-02-19 03:02:00,33.0,31.0,29.57,West,277,22.0,30.0,91,0.01,,,0.16,,2013-02-19 08:02:00,
2013-02-19 03:22:00,33.0,31.0,29.58,WSW,254,20.0,33.0,91,0.00,,,0.16,,2013-02-19 08:22:00,
2013-02-19 03:32:00,32.0,30.0,29.59,West,273,20.0,31.0,92,0.00,,,0.16,,2013-02-19 08:32:00,
2013-02-19 03:42:00,32.0,30.0,29.59,West,273,20.0,31.0,92,0.00,,,0.16,,2013-02-19 08:42:00,
2013-02-19 03:52:00,32.0,30.0,29.59,West,271,18.0,27.0,91,0.00,,,0.16,,2013-02-19 08:52:00,
2013-02-19 04:02:00,31.0,28.0,29.60,West,279,20.0,33.0,90,0.00,,,0.16,,2013-02-19 09:02:00,
2013-02-19 04:11:00,31.0,28.0,29.60,West,279,20.0,33.0,90,0.00,,,0.16,,2013-02-19 09:11:00,
2013-02-19 04:22:00,30.0,27.0,29.60,WNW,288,18.0,27.0,90,0.00,,,0.16,,2013-02-19 09:22:00,
2013-02-19 04:32:00,30.0,28.0,29.62,West,262,20.0,30.0,91,0.00,,,0.16,,2013-02-19 09:32:00,
2013-02-19 04:42:00,30.0,28.0,29.62,West,262,20.0,30.0,91,0.00,,,0.16,,2013-02-19 09:42:00,
2013-02-19 04:53:00,28.0,25.0,29.62,West,264,28.0,37.0,90,0.00,,,0.16,,2013-02-19 09:53:00,
2013-02-19 05:02:00,27.0,24.0,29.64,West,273,32.0,40.0,88,0.01,,,0.17,,2013-02-19 10:02:00,
2013-02-19 05:11:00,27.0,24.0,29.64,West,273,32.0,40.0,88,0.01,,,0.17,,2013-02-19 10:11:00,
2013-02-19 05:22:00,26.0,23.0,29.65,West,273,28.0,36.0,88,0.01,,,0.17,,2013-02-19 10:22:00,
2013-02-19 05:32:00,26.0,23.0,29.65,West,263,16.0,28.0,89,0.01,,,0.17,,2013-02-19 10:32:00,
2013-02-19 05:42:00,26.0,23.0,29.65,West,263,16.0,28.0,89,0.01,,,0.17,,2013-02-19 10:42:00,
2013-02-19 05:52:00,26.0,23.0,29.67,West,266,20.0,29.0,89,0.01,,,0.17,,2013-02-19 10:52:00,
2013-02-19 06:01:00,25.0,22.0,29.67,WSW,255,28.0,34.0,87,0.00,,,0.17,,2013-02-19 11:01:00,
2013-02-19 06:11:00,25.0,22.0,29.67,WSW,255,28.0,34.0,87,0.00,,,0.17,,2013-02-19 11:11:00,
2013-02-19 06:22:00,25.0,21.0,29.68,West,273,28.0,35.0,85,0.00,,,0.17,,2013-02-19 11:22:00,
2013-02-19 06:32:00,24.0,20.0,29.70,West,267,16.0,32.0,85,0.00,,,0.17,,2013-02-19 11:32:00,
2013-02-19 06:42:00,24.0,20.0,29.70,West,267,16.0,32.0,85,0.00,,,0.17,,2013-02-19 11:42:00,
2013-02-19 06:52:00,24.0,19.0,29.70,West,268,30.0,39.0,82,0.00,,,0.17,,2013-02-19 11:52:00,
2013-02-19 07:02:00,24.0,19.0,29.70,West,268,30.0,39.0,82,0.00,,,0.17,,2013-02-19 12:02:00,
2013-02-19 07:12:00,24.0,19.0,29.70,West,268,30.0,39.0,82,0.00,,,0.17,,2013-02-19 12:12:00,
2013-02-19 07:22:00,24.0,20.0,29.70,WNW,285,23.0,30.0,83,0.00,,,0.17,,2013-02-19 12:22:00,
2013-02-19 07:32:00,23.0,18.0,29.71,West,281,22.0,33.0,82,0.00,,,0.17,,2013-02-19 12:32:00,
2013-02-19 07:42:00,23.0,18.0,29.71,West,281,22.0,33.0,82,0.00,,,0.17,,2013-02-19 12:42:00,
2013-02-19 07:53:00,23.0,18.0,29.71,West,273,23.0,32.0,82,0.00,,,0.17,,2013-02-19 12:53:00,
2013-02-19 08:02:00,23.0,19.0,29.72,West,271,21.0,31.0,83,0.00,,,0.17,,2013-02-19 13:02:00,
2013-02-19 08:11:00,23.0,19.0,29.72,West,271,21.0,31.0,83,0.00,,,0.17,,2013-02-19 13:11:00,
2013-02-19 08:22:00,23.0,19.0,29.73,West,273,18.0,30.0,84,0.00,,,0.17,,2013-02-19 13:22:00,
2013-02-19 08:32:00,23.0,19.0,29.74,West,263,23.0,31.0,84,0.00,,,0.17,,2013-02-19 13:32:00,
2013-02-19 08:42:00,23.0,19.0,29.74,West,263,23.0,31.0,84,0.00,,,0.17,,2013-02-19 13:42:00,
2013-02-19 08:52:00,23.0,18.0,29.74,West,264,25.0,33.0,80,0.00,,,0.17,,2013-02-19 13:52:00,
2013-02-19 09:01:00,22.0,17.0,29.75,West,271,27.0,33.0,81,0.00,,,0.17,,2013-02-19 14:01:00,
2013-02-19 09:12:00,22.0,17.0,29.75,West,271,27.0,33.0,81,0.00,,,0.17,,2013-02-19 14:12:00,
2013-02-19 09:22:00,22.0,18.0,29.75,West,260,20.0,28.0,83,0.00,,,0.17,,2013-02-19 14:22:00,
2013-02-19 09:33:00,22.0,18.0,29.75,West,260,19.0,26.0,84,0.00,,,0.17,,2013-02-19 14:33:00,
2013-02-19 09:42:00,22.0,18.0,29.75,West,260,19.0,26.0,84,0.00,,,0.17,,2013-02-19 14:42:00,
2013-02-19 09:52:00,22.0,18.0,29.76,WNW,283,23.0,33.0,84,0.00,,,0.17,,2013-02-19 14:52:00,
2013-02-19 10:02:00,22.0,18.0,29.76,West,277,15.0,31.0,85,0.00,,,0.17,,2013-02-19 15:02:00,
2013-02-19 10:11:00,22.0,18.0,29.76,West,277,15.0,31.0,85,0.00,,,0.17,,2013-02-19 15:11:00,
2013-02-19 10:22:00,21.0,16.0,29.77,West,271,23.0,37.0,82,0.00,,,0.17,,2013-02-19 15:22:00,
2013-02-19 10:32:00,21.0,16.0,29.77,West,261,28.0,38.0,80,0.00,,,0.17,,2013-02-19 15:32:00,
2013-02-19 10:42:00,21.0,16.0,29.77,West,261,28.0,38.0,80,0.00,,,0.17,,2013-02-19 15:42:00,
2013-02-19 10:52:00,20.0,14.0,29.77,WNW,288,27.0,36.0,78,0.00,,,0.17,,2013-02-19 15:52:00,
2013-02-19 11:02:00,20.0,15.0,29.78,West,261,29.0,37.0,79,0.00,,,0.17,,2013-02-19 16:02:00,
2013-02-19 11:11:00,20.0,15.0,29.78,West,261,29.0,37.0,79,0.00,,,0.17,,2013-02-19 16:11:00,
2013-02-19 11:22:00,20.0,15.0,29.78,West,264,28.0,35.0,80,0.00,,,0.17,,2013-02-19 16:22:00,
2013-02-19 11:32:00,20.0,15.0,29.80,West,274,29.0,40.0,79,0.00,,,0.17,,2013-02-19 16:32:00,
2013-02-19 11:42:00,20.0,15.0,29.80,West,274,29.0,40.0,79,0.00,,,0.17,,2013-02-19 16:42:00,
2013-02-19 11:52:00,21.0,16.0,29.80,WSW,252,21.0,37.0,79,0.00,,,0.17,,2013-02-19 16:52:00,
2013-02-19 12:01:00,21.0,15.0,29.80,West,276,27.0,33.0,78,0.00,,,0.17,,2013-02-19 17:01:00,
2013-02-19 12:11:00,21.0,15.0,29.80,West,276,27.0,33.0,78,0.00,,,0.17,,2013-02-19 17:11:00,
2013-02-19 12:21:00,21.0,16.0,29.80,West,272,20.0,36.0,80,0.00,,,0.17,,2013-02-19 17:21:00,
2013-02-19 12:32:00,21.0,16.0,29.80,West,266,23.0,31.0,79,0.00,,,0.17,,2013-02-19 17:32:00,
2013-02-19 12:42:00,21.0,16.0,29.80,West,266,23.0,31.0,79,0.00,,,0.17,,2013-02-19 17:42:00,
2013-02-19 12:52:00,21.0,16.0,29.80,WNW,291,29.0,32.0,80,0.00,,,0.17,,2013-02-19 17:52:00,
2013-02-19 13:02:00,21.0,16.0,29.80,WNW,289,28.0,33.0,80,0.00,,,0.17,,2013-02-19 18:02:00,
2013-02-19 13:11:00,21.0,16.0,29.80,WNW,289,28.0,33.0,80,0.00,,,0.17,,2013-02-19 18:11:00,
2013-02-19 13:21:00,21.0,16.0,29.81,West,265,25.0,33.0,80,0.00,,,0.17,,2013-02-19 18:21:00,
2013-02-19 13:32:00,21.0,16.0,29.81,West,265,25.0,33.0,80,0.00,,,0.17,,2013-02-19 18:32:00,
2013-02-19 13:42:00,19.0,14.0,29.83,West,266,23.0,32.0,80,0.00,,,0.17,,2013-02-19 18:42:00,
2013-02-19 13:52:00,19.0,14.0,29.83,West,266,23.0,32.0,80,0.00,,,0.17,,2013-02-19 18:52:00,
2013-02-19 14:01:00,18.0,13.0,29.83,West,269,23.0,32.0,79,0.00,,,0.17,,2013-02-19 19:01:00,
2013-02-19 14:11:00,18.0,13.0,29.83,West,269,23.0,32.0,79,0.00,,,0.17,,2013-02-19 19:11:00,
2013-02-19 14:21:00,19.0,14.0,29.83,West,276,25.0,31.0,79,0.00,,,0.17,,2013-02-19 19:21:00,
2013-02-19 14:32:00,18.0,13.0,29.83,WSW,254,22.0,31.0,81,0.00,,,0.17,,2013-02-19 19:32:00,
2013-02-19 14:42:00,18.0,13.0,29.83,WSW,254,22.0,31.0,81,0.00,,,0.17,,2013-02-19 19:42:00,
2013-02-19 14:52:00,19.0,13.0,29.85,West,275,24.0,32.0,78,0.00,,,0.17,,2013-02-19 19:52:00,
2013-02-19 15:02:00,18.0,13.0,29.86,West,265,22.0,30.0,81,0.00,,,0.17,,2013-02-19 20:02:00,
2013-02-19 15:12:00,18.0,13.0,29.86,West,265,22.0,30.0,81,0.00,,,0.17,,2013-02-19 20:12:00,
2013-02-19 15:22:00,18.0,12.0,29.86,WSW,252,22.0,33.0,78,0.00,,,0.17,,2013-02-19 20:22:00,
2013-02-19 15:32:00,18.0,12.0,29.87,WNW,282,25.0,33.0,77,0.00,,,0.17,,2013-02-19 20:32:00,
2013-02-19 15:42:00,18.0,12.0,29.87,WNW,282,25.0,33.0,77,0.00,,,0.17,,2013-02-19 20:42:00,
2013-02-19 15:52:00,18.0,12.0,29.88,West,273,26.0,33.0,78,0.00,,,0.17,,2013-02-19 20:52:00,
2013-02-19 16:02:00,18.0,12.0,29.89,WNW,282,21.0,32.0,78,0.00,,,0.17,,2013-02-19 21:02:00,
2013-02-19 16:11:00,18.0,12.0,29.89,WNW,282,21.0,32.0,78,0.00,,,0.17,,2013-02-19 21:11:00,
2013-02-19 16:21:00,18.0,13.0,29.90,West,279,30.0,34.0,80,0.00,,,0.17,,2013-02-19 21:21:00,
2013-02-19 16:32:00,18.0,12.0,29.91,West,279,28.0,39.0,77,0.00,,,0.17,,2013-02-19 21:32:00,
2013-02-19 16:42:00,18.0,12.0,29.91,West,279,28.0,39.0,77,0.00,,,0.17,,2013-02-19 21:42:00,
2013-02-19 16:52:00,17.0,11.0,29.92,West,262,29.0,37.0,77,0.00,,,0.17,,2013-02-19 21:52:00,
2013-02-19 17:02:00,17.0,11.0,29.93,West,265,24.0,33.0,77,0.00,,,0.17,,2013-02-19 22:02:00,
2013-02-19 17:11:00,17.0,11.0,29.93,West,265,24.0,33.0,77,0.00,,,0.17,,2013-02-19 22:11:00,
2013-02-19 17:21:00,17.0,12.0,29.93,West,267,23.0,32.0,80,0.00,,,0.17,,2013-02-19 22:21:00,
2013-02-19 17:32:00,16.0,11.0,29.94,West,279,19.0,31.0,79,0.00,,,0.17,,2013-02-19 22:32:00,
2013-02-19 17:42:00,16.0,11.0,29.94,West,279,19.0,31.0,79,0.00,,,0.17,,2013-02-19 22:42:00,
2013-02-19 17:52:00,17.0,12.0,29.95,West,277,17.0,27.0,79,0.00,,,0.17,,2013-02-19 22:52:00,
2013-02-19 18:01:00,17.0,12.0,29.96,WNW,282,23.0,29.0,81,0.00,,,0.17,,2013-02-19 23:01:00,
2013-02-19 18:11:00,17.0,12.0,29.96,WNW,282,23.0,29.0,81,0.00,,,0.17,,2013-02-19 23:11:00,
2013-02-19 18:21:00,16.0,10.0,29.97,West,281,22.0,35.0,77,0.00,,,0.17,,2013-02-19 23:21:00,
2013-02-19 18:32:00,16.0,11.0,29.98,West,271,14.0,26.0,79,0.00,,,0.17,,2013-02-19 23:32:00,
2013-02-19 18:42:00,16.0,11.0,29.98,West,271,14.0,26.0,79,0.00,,,0.17,,2013-02-19 23:42:00,
2013-02-19 18:52:00,16.0,11.0,29.99,West,273,19.0,32.0,79,0.00,,,0.17,,2013-02-19 23:52:00,
2013-02-19 19:01:00,16.0,11.0,30.00,WNW,300,21.0,33.0,79,0.00,,,0.17,,2013-02-20 00:01:00,
2013-02-19 19:11:00,16.0,11.0,30.00,WNW,300,21.0,33.0,79,0.00,,,0.17,,2013-02-20 00:11:00,
2013-02-19 19:21:00,16.0,11.0,30.00,WNW,290,18.0,33.0,80,0.00,,,0.17,,2013-02-20 00:21:00,
2013-02-19 19:32:00,16.0,11.0,30.00,WNW,286,14.0,30.0,80,0.00,,,0.17,,2013-02-20 00:32:00,
2013-02-19 19:42:00,16.0,11.0,30.00,WNW,286,14.0,30.0,80,0.00,,,0.17,,2013-02-20 00:42:00,
2013-02-19 19:52:00,16.0,11.0,30.01,West,272,17.0,29.0,81,0.00,,,0.16,,2013-02-20 00:52:00,
2013-02-19 20:02:00,16.0,11.0,30.01,West,269,16.0,26.0,82,0.00,,,0.16,,2013-02-20 01:02:00,
2013-02-19 20:11:00,16.0,11.0,30.01,West,269,16.0,26.0,82,0.00,,,0.16,,2013-02-20 01:11:00,
2013-02-19 20:21:00,16.0,11.0,30.01,West,271,18.0,25.0,81,0.00,,,0.16,,2013-02-20 01:21:00,
2013-02-19 20:32:00,17.0,12.0,30.02,WNW,283,16.0,23.0,82,0.00,,,0.16,,2013-02-20 01:32:00,
2013-02-19 20:42:00,17.0,12.0,30.02,WNW,283,16.0,23.0,82,0.00,,,0.16,,2013-02-20 01:42:00,
2013-02-19 20:52:00,17.0,12.0,30.02,WNW,283,16.0,23.0,82,0.00,,,0.16,,2013-02-20 01:52:00,
2013-02-19 21:02:00,17.0,13.0,30.02,West,273,17.0,24.0,83,0.00,,,0.16,,2013-02-20 02:02:00,
2013-02-19 21:11:00,17.0,13.0,30.02,West,273,17.0,24.0,83,0.00,,,0.16,,2013-02-20 02:11:00,
2013-02-19 21:22:00,17.0,13.0,30.02,WNW,303,12.0,19.0,85,0.00,,,0.16,,2013-02-20 02:22:00,
2013-02-19 21:32:00,16.0,13.0,30.03,WNW,296,18.0,20.0,86,0.00,,,0.16,,2013-02-20 02:32:00,
2013-02-19 21:42:00,16.0,13.0,30.03,WNW,296,18.0,20.0,86,0.00,,,0.16,,2013-02-20 02:42:00,
2013-02-19 21:52:00,16.0,13.0,30.03,WNW,300,14.0,24.0,86,0.00,,,0.15,,2013-02-20 02:52:00,
2013-02-19 22:02:00,16.0,13.0,30.04,WNW,284,16.0,24.0,86,0.00,,,0.15,,2013-02-20 03:02:00,
2013-02-19 22:12:00,16.0,13.0,30.04,WNW,284,16.0,24.0,86,0.00,,,0.15,,2013-02-20 03:12:00,
2013-02-19 22:22:00,16.0,13.0,30.04,WNW,284,16.0,24.0,86,0.00,,,0.15,,2013-02-20 03:22:00,
2013-02-19 22:32:00,16.0,12.0,30.04,WNW,299,15.0,20.0,85,0.00,,,0.15,,2013-02-20 03:32:00,
2013-02-19 22:42:00,16.0,12.0,30.04,WNW,299,15.0,20.0,85,0.00,,,0.15,,2013-02-20 03:42:00,
2013-02-19 22:52:00,16.0,13.0,30.05,WNW,291,15.0,18.0,86,0.00,,,0.09,,2013-02-20 03:52:00,
2013-02-19 23:01:00,16.0,12.0,30.05,WNW,294,18.0,23.0,85,0.00,,,0.09,,2013-02-20 04:01:00,
2013-02-19 23:11:00,16.0,12.0,30.05,WNW,294,18.0,23.0,85,0.00,,,0.09,,2013-02-20 04:11:00,
2013-02-19 23:21:00,15.0,11.0,30.05,WNW,290,13.0,22.0,84,0.00,,,0.09,,2013-02-20 04:21:00,
2013-02-19 23:32:00,15.0,11.0,30.05,WNW,301,11.0,17.0,84,0.00,,,0.09,,2013-02-20 04:32:00,
2013-02-19 23:42:00,15.0,11.0,30.05,WNW,301,11.0,17.0,84,0.00,,,0.09,,2013-02-20 04:42:00,
2013-02-19 23:52:00,15.0,11.0,30.06,WNW,295,14.0,22.0,82,0.00,,,0.08,,2013-02-20 04:52:00,